Back to catalog

SL-16 DEB

AliveLEO
NORAD 22410·DEBRIS·🇷🇺 Russia

Launched Dec 25, 1992 from Baikonur Cosmodrome

Loading…

Next Passes (next 24 hours)

TLE

FreshSource: Space-Track

Epoch: Sep 14, 2026, 04:16 UTC

1 22410U 92093DB  26257.17819360  .00000118  00000-0  11065-3 0  9995
2 22410  71.0856 168.0046 0108889 224.5429 286.7050 13.97392969714250

Track SL-16 DEB in real time with AllMySat

Download on the App Store